Previsão horária em Barshamay

Hoje, 25 Outubro, Domingo

Tempo Temperatura Precipitação Vento Pressão Humidade
00:00 +18°C° 0 mm 1 m/s 714 mmHg 48%
01:00 +16°C° 0 mm 1 m/s 714 mmHg 47%
02:00 +16°C° 0 mm 1 m/s 714 mmHg 46%
03:00 +16°C° 0 mm 1 m/s 714 mmHg 45%
04:00 +16°C° 0 mm 1 m/s 714 mmHg 44%
05:00 +16°C° 0 mm 1 m/s 714 mmHg 44%
06:00 +15°C° 0 mm 1 m/s 714 mmHg 43%
07:00 +19°C° 0 mm 1 m/s 714 mmHg 40%
08:00 +21°C° 0 mm 1 m/s 714 mmHg 36%
09:00 +23°C° 0 mm 1 m/s 715 mmHg 33%
10:00 +23°C° 0 mm 1 m/s 714 mmHg 32%
11:00 +24°C° 0 mm 2 m/s 714 mmHg 32%
12:00 +25°C° 0 mm 2 m/s 714 mmHg 31%
13:00 +24°C° 0 mm 2 m/s 714 mmHg 35%
14:00 +24°C° 0 mm 2 m/s 714 mmHg 39%
15:00 +23°C° 0 mm 2 m/s 714 mmHg 43%
16:00 +21°C° 0 mm 1 m/s 713 mmHg 51%
17:00 +19°C° 0 mm 1 m/s 713 mmHg 58%
18:00 +16°C° 0 mm 1 m/s 713 mmHg 65%
19:00 +16°C° 0 mm 1 m/s 713 mmHg 62%
20:00 +16°C° 0 mm 1 m/s 714 mmHg 59%
21:00 +16°C° 0 mm 1 m/s 714 mmHg 56%
22:00 +16°C° 0 mm 1 m/s 714 mmHg 54%
23:00 +18°C° 0 mm 1 m/s 714 mmHg 52%

Amanhã, 26 Outubro, Segunda-feira

Tempo Temperatura Precipitação Vento Pressão Humidade
00:00 +18°C° 0 mm 1 m/s 714 mmHg 50%
01:00 +16°C° 0 mm 1 m/s 714 mmHg 51%
02:00 +16°C° 0 mm 1 m/s 715 mmHg 51%
03:00 +16°C° 0 mm 1 m/s 715 mmHg 51%
04:00 +16°C° 0 mm 1 m/s 715 mmHg 51%
05:00 +15°C° 0 mm 1 m/s 715 mmHg 52%
06:00 +15°C° 0 mm 1 m/s 715 mmHg 52%
07:00 +16°C° 0 mm 1 m/s 715 mmHg 50%
08:00 +18°C° 0 mm 1 m/s 716 mmHg 47%
09:00 +20°C° 0 mm 1 m/s 716 mmHg 45%
10:00 +19°C° 0 mm 2 m/s 716 mmHg 44%
11:00 +20°C° 0 mm 2 m/s 716 mmHg 43%
12:00 +20°C° 0 mm 2 m/s 716 mmHg 42%
13:00 +20°C° 0 mm 2 m/s 716 mmHg 44%
14:00 +19°C° 0 mm 2 m/s 716 mmHg 46%
15:00 +19°C° 0 mm 2 m/s 716 mmHg 48%
16:00 +18°C° 0 mm 1 m/s 715 mmHg 56%
17:00 +16°C° 0 mm 1 m/s 715 mmHg 63%
18:00 +13°C° 0 mm 0 m/s 715 mmHg 70%
19:00 +13°C° 0 mm 0 m/s 715 mmHg 70%
20:00 +13°C° 0 mm 0 m/s 715 mmHg 70%
21:00 +12°C° 0 mm 0 m/s 715 mmHg 70%
22:00 +13°C° 0 mm 1 m/s 715 mmHg 71%
23:00 +13°C° 0 mm 1 m/s 715 mmHg 71%

Depois de amanhã, 27 Outubro, Terça-feira

Tempo Temperatura Precipitação Vento Pressão Humidade
00:00 +13°C° 0 mm 1 m/s 715 mmHg 72%
01:00 +12°C° 0 mm 1 m/s 715 mmHg 72%
02:00 +12°C° 0 mm 1 m/s 715 mmHg 73%
03:00 +12°C° 0 mm 1 m/s 715 mmHg 73%
04:00 +12°C° 0 mm 1 m/s 715 mmHg 73%
05:00 +12°C° 0 mm 1 m/s 715 mmHg 73%
06:00 +12°C° 0 mm 1 m/s 715 mmHg 73%
07:00 +13°C° 0 mm 1 m/s 716 mmHg 73%
08:00 +14°C° 0 mm 1 m/s 716 mmHg 72%
09:00 +15°C° 0 mm 2 m/s 716 mmHg 72%
10:00 +15°C° 0 mm 2 m/s 717 mmHg 75%
11:00 +15°C° 0 mm 2 m/s 717 mmHg 78%
12:00 +15°C° 0 mm 2 m/s 717 mmHg 81%
13:00 +15°C° 0 mm 2 m/s 717 mmHg 83%
14:00 +14°C° 0 mm 2 m/s 717 mmHg 85%
15:00 +14°C° 0 mm 2 m/s 717 mmHg 87%
16:00 +13°C° 0 mm 1 m/s 717 mmHg 87%
17:00 +13°C° 0 mm 1 m/s 717 mmHg 88%
18:00 +13°C° 0 mm 1 m/s 718 mmHg 88%
19:00 +12°C° 0 mm 1 m/s 718 mmHg 88%
20:00 +12°C° 0 mm 1 m/s 718 mmHg 87%
21:00 +12°C° 0 mm 1 m/s 718 mmHg 87%
22:00 +12°C° 0 mm 1 m/s 718 mmHg 87%
23:00 +12°C° 0 mm 1 m/s 718 mmHg 87%

28 Outubro, Quarta-feira

Tempo Temperatura Precipitação Vento Pressão Humidade
00:00 +12°C° 0 mm 1 m/s 719 mmHg 86%
01:00 +12°C° 0 mm 1 m/s 719 mmHg 86%
02:00 +12°C° 0 mm 1 m/s 718 mmHg 85%
03:00 +11°C° 0 mm 1 m/s 718 mmHg 84%
04:00 +11°C° 0 mm 1 m/s 719 mmHg 84%
05:00 +11°C° 0 mm 1 m/s 719 mmHg 83%
06:00 +11°C° 0 mm 1 m/s 719 mmHg 82%
07:00 +12°C° 0 mm 2 m/s 719 mmHg 78%
08:00 +13°C° 0 mm 2 m/s 719 mmHg 74%
09:00 +13°C° 0 mm 3 m/s 720 mmHg 70%
10:00 +13°C° 0 mm 3 m/s 720 mmHg 68%
11:00 +14°C° 0 mm 4 m/s 720 mmHg 67%
12:00 +14°C° 0 mm 4 m/s 720 mmHg 65%
13:00 +14°C° 0 mm 4 m/s 719 mmHg 66%
14:00 +14°C° 0 mm 4 m/s 719 mmHg 68%
15:00 +14°C° 0 mm 4 m/s 719 mmHg 69%
16:00 +12°C° 0 mm 3 m/s 719 mmHg 74%
17:00 +11°C° 0 mm 3 m/s 719 mmHg 80%
18:00 +10°C° 0 mm 2 m/s 719 mmHg 85%
19:00 +10°C° 0 mm 2 m/s 719 mmHg 84%
20:00 +10°C° 0 mm 2 m/s 719 mmHg 82%
21:00 +10°C° 0 mm 2 m/s 719 mmHg 81%
22:00 +9°C° 0 mm 2 m/s 719 mmHg 80%
23:00 +9°C° 0 mm 2 m/s 719 mmHg 79%

29 Outubro, Quinta-feira

Tempo Temperatura Precipitação Vento Pressão Humidade
00:00 +9°C° 0 mm 2 m/s 719 mmHg 78%
01:00 +9°C° 0 mm 2 m/s 719 mmHg 76%
02:00 +9°C° 0 mm 2 m/s 718 mmHg 74%
03:00 +9°C° 0 mm 2 m/s 718 mmHg 73%
04:00 +9°C° 0 mm 2 m/s 718 mmHg 72%
05:00 +9°C° 0 mm 2 m/s 718 mmHg 72%
06:00 +9°C° 0 mm 2 m/s 718 mmHg 71%
07:00 +12°C° 0 mm 2 m/s 718 mmHg 69%
08:00 +12°C° 0 mm 3 m/s 718 mmHg 66%
09:00 +13°C° 0 mm 3 m/s 718 mmHg 63%
10:00 +14°C° 0 mm 3 m/s 718 mmHg 63%
11:00 +16°C° 0 mm 3 m/s 718 mmHg 63%
12:00 +17°C° 0 mm 4 m/s 718 mmHg 63%
13:00 +17°C° 0 mm 4 m/s 718 mmHg 65%
14:00 +17°C° 0 mm 3 m/s 717 mmHg 67%
15:00 +17°C° 0 mm 3 m/s 717 mmHg 69%
16:00 +16°C° 0 mm 3 m/s 717 mmHg 74%
17:00 +14°C° 0 mm 3 m/s 717 mmHg 78%
18:00 +14°C° 0 mm 2 m/s 717 mmHg 83%
19:00 +14°C° 0 mm 2 m/s 717 mmHg 81%
20:00 +14°C° 0 mm 2 m/s 717 mmHg 79%
21:00 +14°C° 0 mm 2 m/s 717 mmHg 77%
22:00 +14°C° 0 mm 2 m/s 717 mmHg 75%
23:00 +14°C° 0 mm 1 m/s 717 mmHg 72%

30 Outubro, Sexta-feira

Tempo Temperatura Precipitação Vento Pressão Humidade
00:00 +13°C° 0 mm 1 m/s 717 mmHg 70%
01:00 +13°C° 0 mm 1 m/s 716 mmHg 69%
02:00 +13°C° 0 mm 1 m/s 716 mmHg 68%
03:00 +13°C° 0 mm 1 m/s 716 mmHg 68%
04:00 +13°C° 0 mm 1 m/s 716 mmHg 67%
05:00 +13°C° 0 mm 1 m/s 716 mmHg 67%
06:00 +13°C° 0 mm 1 m/s 716 mmHg 66%
07:00 +15°C° 0 mm 1 m/s 716 mmHg 63%
08:00 +18°C° 0 mm 1 m/s 716 mmHg 60%
09:00 +19°C° 0 mm 1 m/s 716 mmHg 56%
10:00 +19°C° 0 mm 2 m/s 716 mmHg 55%
11:00 +20°C° 0 mm 2 m/s 716 mmHg 54%
12:00 +21°C° 0 mm 2 m/s 715 mmHg 53%
13:00 +20°C° 0 mm 2 m/s 715 mmHg 57%
14:00 +20°C° 0 mm 2 m/s 715 mmHg 62%
15:00 +19°C° 0 mm 2 m/s 715 mmHg 66%
16:00 +18°C° 0 mm 2 m/s 715 mmHg 72%
17:00 +17°C° 0 mm 2 m/s 715 mmHg 78%
18:00 +15°C° 0 mm 1 m/s 715 mmHg 84%
19:00 +16°C° 0 mm 1 m/s 715 mmHg 82%
20:00 +16°C° 0 mm 1 m/s 715 mmHg 80%
21:00 +16°C° 0 mm 1 m/s 715 mmHg 79%
22:00 +15°C° 0 mm 1 m/s 715 mmHg 79%
23:00 +15°C° 0 mm 1 m/s 715 mmHg 78%
Mostrar mais